DW1685 Weather Reports


Display with metric or nautical units.
time (UTC)temp
F
wind
direction
speed
MPH
gust
MPH
rain 1hr
in
rain 24hr
in
rain mn
in
humidity
%
barometer
mb
20180427010046 53 245 6.0 0.0 0.00 0.00 0.00 48 1015.4
20180427004539 52 247 5.0 0.0 0.00 0.00 0.00 48 1015.3
20180427003037 52 186 7.0 0.0 0.00 0.00 0.00 52 1015.4
20180427001534 53 191 6.0 0.0 0.00 0.00 0.00 52 1015.6
20180427000029 53 248 5.0 0.0 0.00 0.00 0.00 45 1015.6
20180426234527 52 277 5.0 0.0 0.00 0.00 0.00 46 1015.6
20180426233018 52 237 5.0 0.0 0.00 0.00 0.00 49 1015.7
20180426231514 52 242 6.0 0.0 0.00 0.00 0.00 44 1015.9
20180426230009 52 257 6.0 0.0 0.00 0.00 0.00 43 1015.9
20180426224504 52 221 6.0 0.0 0.00 0.00 0.00 42 1016.2
20180426223000 52 251 5.0 0.0 0.00 0.00 0.00 46 1016.2
20180426221457 52 245 8.0 0.0 0.00 0.00 0.00 48 1016.5
20180426215953 53 251 5.0 0.0 0.00 0.00 0.00 57 1016.5
20180426214447 53 227 5.0 0.0 0.00 0.00 0.00 55 1016.6
20180426212944 53 279 5.0 0.0 0.00 0.00 0.00 53 1016.3
20180426211440 53 229 5.0 0.0 0.00 0.00 0.00 56 1016.3
20180426205934 53 263 5.0 0.0 0.00 0.00 0.00 54 1016.5
20180426204431 53 284 2.0 0.0 0.00 0.00 0.00 55 1016.5
20180426202926 52 235 5.0 0.0 0.00 0.00 0.00 46 1016.6
20180426201420 52 268 6.0 0.0 0.00 0.00 0.00 47 1016.5
20180426195916 52 236 5.0 0.0 0.00 0.00 0.00 35 1016.7
20180426194413 51 284 6.0 0.0 0.00 0.00 0.00 36 1016.7
20180426192908 51 232 6.0 0.0 0.00 0.00 0.00 33 1016.8
20180426191406 51 235 6.0 0.0 0.00 0.00 0.00 31 1017.0
20180426185859 51 262 6.0 0.0 0.00 0.00 0.00 33 1017.0
20180426184354 51 238 5.0 0.0 0.00 0.00 0.00 32 1017.3
20180426182850 51 236 5.0 0.0 0.00 0.00 0.00 28 1017.5
20180426181349 50 215 7.0 0.0 0.00 0.00 0.00 27 1017.4
20180426175843 50 248 2.0 0.0 0.00 0.00 0.00 20 1017.3
20180426174342 50 230 5.0 0.0 0.00 0.00 0.00 16 1017.3
20180426172834 50 223 3.0 0.0 0.00 0.00 0.00 17 1017.3
20180426171328 50 214 2.0 0.0 0.00 0.00 0.00 16 1017.3
20180426165824 50 211 1.0 0.0 0.00 0.00 0.00 10 1017.0
20180426164319 50 211 0.0 0.0 0.00 0.00 0.00 5 1017.0
20180426162816 50 211 0.0 0.0 0.00 0.00 0.00 1 1016.9
20180426161311 50 211 0.0 0.0 0.00 0.00 0.00 100 1017.0
20180426155806 50 211 0.0 0.0 0.00 0.00 0.00 100 1016.9
20180426154302 50 212 0.0 0.0 0.00 0.00 0.00 100 1017.0
20180426152801 50 212 0.0 0.0 0.00 0.00 0.00 100 1017.0
20180426151256 50 216 0.0 0.0 0.00 0.00 0.00 100 1016.9
20180426145750 49 217 0.0 0.0 0.00 0.00 0.00 100 1016.8
20180426144245 49 217 0.0 0.0 0.00 0.00 0.00 100 1016.8
20180426142740 49 217 0.0 0.0 0.00 0.00 0.00 100 1016.8
20180426141238 48 217 0.0 0.0 0.00 0.00 0.00 100 1016.6
20180426135731 47 217 0.0 0.0 0.00 0.00 0.00 100 1016.4
20180426134230 47 217 0.0 0.0 0.00 0.00 0.00 100 1016.0
20180426132722 47 217 0.0 0.0 0.00 0.00 0.00 100 1015.8
20180426131219 47 217 0.0 0.0 0.00 0.00 0.00 100 1015.7
20180426125713 48 217 0.0 0.0 0.00 0.00 0.00 100 1015.8
20180426124209 48 217 0.0 0.0 0.00 0.00 0.00 100 1016.1
20180426122708 48 217 0.0 0.0 0.00 0.00 0.00 100 1015.8
20180426121200 48 217 0.0 0.0 0.00 0.00 0.00 100 1015.9
20180426115657 48 217 0.0 0.0 0.00 0.00 0.00 100 1016.0
20180426114151 48 217 0.0 0.0 0.00 0.00 0.00 100 1016.0
20180426112647 48 217 0.0 0.0 0.00 0.00 0.00 100 1016.1
20180426111146 48 217 0.0 0.0 0.00 0.00 0.00 100 1015.9
20180426105642 48 217 0.0 0.0 0.00 0.00 0.00 100 1016.0
20180426104139 48 217 0.0 0.0 0.00 0.00 0.00 100 1016.1
20180426102632 48 217 0.0 0.0 0.00 0.00 0.00 100 1016.1
20180426101128 49 217 0.0 0.0 0.00 0.00 0.00 2 1016.2
20180426095622 49 217 0.0 0.0 0.00 0.00 0.00 100 1016.3
20180426094116 49 217 0.0 0.0 0.00 0.00 0.00 100 1016.5
20180426092612 49 217 0.0 0.0 0.00 0.00 0.00 1 1016.7
20180426091108 49 217 0.0 0.0 0.00 0.00 0.00 1 1016.7
20180426085603 49 217 0.0 0.0 0.00 0.00 0.00 3 1016.9
20180426084100 49 217 0.0 0.0 0.00 0.00 0.00 5 1017.1
20180426082555 49 217 0.0 0.0 0.00 0.00 0.00 7 1017.3
20180426081052 49 217 0.0 0.0 0.00 0.00 0.00 8 1017.5
20180426075547 49 217 0.0 0.0 0.00 0.00 0.00 8 1017.3
20180426074045 49 217 0.0 0.0 0.00 0.00 0.00 7 1017.4
20180426072539 49 217 0.0 0.0 0.00 0.00 0.00 11 1017.2
20180426071035 49 217 0.0 0.0 0.00 0.00 0.00 8 1017.4
20180426065530 49 217 0.0 0.0 0.00 0.00 0.00 10 1017.4
20180426064027 49 217 0.0 0.0 0.00 0.00 0.00 16 1017.1
20180426062519 50 217 0.0 0.0 0.00 0.00 0.00 19 1017.1
20180426061020 50 217 0.0 0.0 0.00 0.00 0.00 15 1017.2
20180426055512 50 217 0.0 0.0 0.00 0.00 0.00 17 1017.2
20180426054007 50 217 0.0 0.0 0.00 0.00 0.00 19 1017.3
20180426052506 50 217 0.0 0.0 0.00 0.00 0.00 16 1017.2
20180426051000 50 217 0.0 0.0 0.00 0.00 0.00 17 1017.4
20180426045456 50 217 0.0 0.0 0.00 0.00 0.00 15 1017.2
20180426043949 50 217 0.0 0.0 0.00 0.00 0.00 15 1017.5
20180426042445 50 217 0.0 0.0 0.00 0.00 0.00 17 1017.6
20180426040943 51 217 0.0 0.0 0.00 0.00 0.00 21 1017.3
20180426035436 51 217 0.0 0.0 0.00 0.00 0.00 19 1017.4
20180426033935 51 217 0.0 0.0 0.00 0.00 0.00 17 1017.3
20180426032427 51 216 0.0 0.0 0.00 0.00 0.00 17 1017.1
20180426030924 51 216 0.0 0.0 0.00 0.00 0.00 14 1017.1
20180426025418 50 216 0.0 0.0 0.00 0.00 0.00 19 1017.0
20180426023915 51 216 0.0 0.0 0.00 0.00 0.00 20 1016.8
20180426022409 51 216 0.0 0.0 0.00 0.00 0.00 23 1016.8
20180426020909 51 217 2.0 0.0 0.00 0.00 0.00 28 1016.8
20180426015404 51 216 3.0 0.0 0.00 0.00 0.00 39 1016.8
20180426013857 52 217 3.0 0.0 0.00 0.00 0.00 42 1016.8
20180426012354 52 216 3.0 0.0 0.00 0.00 0.00 43 1016.9
20180426010848 52 215 3.0 0.0 0.00 0.00 0.00 45 1016.9